Retour au catalogue

SL-8 R/B

ActifLEO
NORAD 16457·ROCKET BODY·🇷🇺 Russia

Lancé Jan 9, 1986 depuis Plesetsk Cosmodrome

Loading…

Prochains Passages (prochaines 24 heures)

TLE

FraisSource: Space-Track

Époque: Sep 14, 2026, 10:44 UTC

1 16457U 86002J   26257.44733527  .00000034  00000-0  44918-3 0  9992
2 16457  73.9914 143.8668 0134206  64.5988 107.4476 12.20753705716601

Suivez SL-8 R/B en temps réel avec AllMySat

Download on the App Store